SCP
0 0 0 0 0 0 0 0 0 0 0 0 0 0 -0 0 0 0 0 0 0 0 0 0 0 0 0 0 0 0 0 0 0 0 0 0 0 0 0 0 0 0 0 0
0 0 0 0 0 0 0 0 0 0 -0 0 -0 -0 0 0 0 0 0 0 0 0 0 0 0 0 0 0 0 0 0 0 0 0 0 0 0 0 0 0 0 0 0 0
0 0 0 0 0 0 0 0 0 0 -0 0 -0 0 0 0 0 0 0 0 0 0 0 0 0 0 0 0 0 0 0 0 0 0 0 0 0 0 0 0 0 0 0 0
0 0 0 0 0 0 0 0 0 0 -0 0 0 0 0 0 0 0 0 0 0 0 0 0 0 0 0 0 0 0 0 0 0 0 0 0 0 0 0 0 0 0 0 0
0 0 0 0 0 0 0 -0 0 -0 0 -0 0 0 0 0 0 0 0 0 0 0 0 0 0 0 0 0 0 0 0 0 0 0 0 0 0 0 0 0 0 0 0 0
0 0 0 0 0 0 0 0 0 0 0 0 0 -0 0 0 0 0 0 0 0 0 0 0 0 0 0 0 0 0 0 0 0 0 0 0 0 0 0 0 0 0 0 0
0 0 0 0 0 0 -0 -0 0 -0 -0 -0 0 0 0 0 0 0 0 0 0 0 0 0 0 0 0 -0 0 0 0 0 0 0 0 0 0 0 0 0 0 0 0 0
0 0 0 0 0 0 -0 0 0 0 -0 0 -0 0 0 0 0 0 0 0 0 0 0 0 0 0 0 0 -0 0 0 0 0 0 0 -0 0 0 0 0 0 0 0 0
0 0 0 0 0 0 -0 0 -0 -0 0 -0 -0 0 0 0 0 0 0 0 0 0 0 0 0 0 0 0 -0 -0 -0 0 0 -0 -0 -0 0 0 0 0 0 0 0 0
0 0 0 0 0 0 0 0 -0 0 0 0 0 0 0 0 0 0 0 0 0 0 0 0 0 0 0 0 -0 -0 -0 -0 -0 0 0 0 0 0 0 0 0 0 0 0
0 0 0 0 0 0 0 0 0 0 0 0 0 0 0 0 0 0 0 -0 -0 -0 -0 -0 -0 -0 -0 -0 -0 -0 -0 0 0 0 0 0 0 0 0 0 0 0 0 0
0 0 0 0 0 0 0 0 0 0 0 0 0 0 0 0 0 0 -0 -0 -0 -0 -0 -0 0 0 0 0 0 0 0 0 0 0 0 0 0 0 0 0 0 0 0 0
0 0 0 0 0 0 0 0 0 0 0 0 0 0 0 0 0 0 0 0 0 0 0 0 0 0 0 0 0 0 0 0 0 0 0 0 0 0 0 0 0 0 0 0
0 0 0 0 0 0 0 0 0 0 0 0 0 0 0 0 0 0 0 0 0 0 0 0 0 0 0 0 0 0 0 0 0 0 0 0 0 0 0 0 0 0 0 0
0 0 0 0 0 0 0 0 0 0 0 0 0 0 0 0 0 0 0 0 0 0 0 0 0 0 0 0 0 0 0 0 0 0 0 0 0 0 0 0 0 0 0 0
0 0 0 0 0 0 0 0 0 0 0 0 0 0 0 0 0 0 0 0 0 0 0 0 0 0 0 0 0 0 0 0 0 0 0 0 0 0 0 0 0 0 0 0
0 0 0 0 0 0 0 0 0 0 0 0 0 0 0 0 0 0 0 0 0 0 0 0 0 0 0 0 0 0 0 0 0 0 0 0 0 0 0 0 0 0 0 0
0 0 0 0 0 0 0 0 0 0 0 0 0 0 0 0 0 0 0 0 0 0 0 0 0 0 0 0 0 0 0 0 0 0 0 0 0 0 0 0 0 0 0 0
0 0 0 0 0 0 0 0 0 0 0 0 0 0 0 0 0 0 0 0 0 0 0 0 0 0 0 0 0 0 0 0 0 0 0 0 0 0 0 0 0 0 0 0
0 0 0 0 0 0 0 0 0 0 0 0 0 0 0 0 0 0 0 0 0 0 0 0 0 0 0 0 0 0 0 0 0 0 0 0 0 0 0 0 0 0 0 0
0 0 0 0 0 0 0 0 0 0 0 0 0 0 0 0 0 0 0 -0 0 0 0 0 0 0 0 0 0 0 0 0 0 0 0 0 0 0 0 0 0 0 0 0
0 0 0 0 0 0 0 0 0 0 0 0 0 0 0 0 0 0 -0 -0 -0 0 0 0 0 0 0 0 0 0 0 0 0 0 0 0 0 0 0 0 0 0 0 0
0 0 0 0 0 0 0 0 0 0 0 0 0 0 0 0 0 0 -0 -0 0 -0 -0 0 0 0 0 0 0 0 0 0 0 0 0 0 0 0 0 0 0 0 0 0
0 0 0 0 0 0 0 0 0 0 0 0 0 0 0 0 0 -0 -0 -0 0 0 0 0 0 0 0 0 0 0 0 0 0 0 0 0 0 0 0 0 0 0 0 0
0 0 0 0 0 0 0 -0 -0 -0 0 0 0 -0 -0 -0 -0 -0 -0 -0 -0 -0 -0 0 0 0 0 0 0 0 0 0 0 0 0 0 0 0 0 0 0 0 0 0
0 0 0 0 0 0 0 0 0 0 0 -0 0 -0 -0 0 -0 -0 -0 -0 -0 -0 -0 -0 -0 -0 0 0 0 0 0 0 0 0 0 0 0 0 0 0 0 0 0 0
Wind_Speed_500mb
2 3 5 12 16 22 25 22 32 14 12 8 17 12 13 40 23 50 56 48 42 27 11 13 28 34 37 37 38 37 34 29 28 36 44 43 42 37 38 38 34 33 30 30
8 5 8 15 16 21 12 21 20 22 12 16 18 22 26 17 17 48 61 50 48 26 24 15 15 18 28 30 33 36 37 34 31 32 33 37 34 34 35 37 40 36 36 34
1 9 14 8 15 28 10 13 14 9 18 10 22 8 10 9 27 53 70 53 54 38 33 24 15 23 28 32 32 33 35 38 35 36 35 37 38 38 36 31 31 32 30 27
7 8 8 8 13 10 11 21 15 18 3 7 9 8 2 7 25 37 48 64 55 62 36 31 30 24 20 16 22 36 33 35 38 37 36 38 39 39 35 30 27 26 30 32
8 10 9 5 11 8 11 12 7 11 8 5 12 8 8 13 20 24 29 43 34 43 47 59 42 31 39 31 20 18 15 21 21 26 29 33 32 30 32 34 33 33 36 44
10 10 5 6 13 9 20 6 5 3 5 6 12 1 5 9 10 8 19 46 65 55 45 51 54 34 43 37 31 26 30 17 15 18 8 2 4 5 11 14 18 19 22 22
12 9 12 5 9 9 16 9 6 9 9 6 20 15 8 18 12 11 16 22 35 46 55 49 39 35 33 36 43 34 24 14 14 7 3 10 10 14 21 29 29 37 45 44
9 10 13 13 3 6 9 7 5 2 4 4 14 12 10 9 14 14 5 9 14 21 24 30 26 26 32 32 42 44 31 30 22 18 19 16 16 27 28 30 33 39 30 27
6 8 10 6 6 4 14 9 4 9 3 7 5 2 3 4 7 12 20 18 5 5 6 13 12 18 27 19 15 17 18 15 14 11 9 15 21 24 27 28 24 22 21 20
3 11 5 10 5 4 5 5 6 6 6 6 4 7 4 9 10 12 21 27 32 35 36 34 32 28 20 18 18 16 14 13 12 11 5 3 2 8 13 15 15 14 13 11
4 2 11 4 9 4 11 7 7 5 4 5 6 1 3 5 6 11 19 32 34 39 42 43 44 39 34 26 23 22 19 18 16 13 9 7 6 4 4 4 5 7 9 11
3 2 6 4 6 4 2 3 1 6 4 4 4 5 5 7 13 23 26 32 39 43 46 49 48 47 44 40 38 34 28 23 21 16 13 12 11 6 2 2 3 3 3 5
4 4 6 13 10 7 9 6 1 2 4 2 7 7 4 9 17 19 28 30 35 38 42 44 45 46 45 43 42 39 33 29 22 17 15 11 8 7 8 6 3 2 4 5
3 2 7 7 5 4 6 7 6 4 4 6 5 9 6 9 12 16 20 24 28 33 35 36 38 39 38 38 37 35 32 29 24 18 13 10 9 8 7 6 6 6 6 6
4 4 1 1 4 6 6 7 6 3 2 4 4 15 10 12 13 17 18 19 25 29 32 34 35 34 34 34 35 34 33 29 26 23 15 9 8 8 9 8 7 7 6 7
2 4 2 5 5 6 8 13 8 6 5 7 4 3 8 12 19 21 21 22 24 25 26 27 28 30 32 32 33 34 35 34 31 27 25 23 18 16 14 14 14 15 14 14
3 7 5 7 8 7 10 14 13 5 2 11 9 9 11 8 19 23 22 18 17 18 21 25 27 28 28 29 29 31 32 33 32 31 28 24 21 18 17 18 19 19 19 19
9 7 5 5 8 4 9 2 2 6 2 6 5 9 7 12 12 21 18 13 11 16 22 25 26 26 26 25 26 27 31 33 33 33 31 27 23 21 20 19 19 20 21 22
3 8 5 6 6 11 9 7 10 11 7 12 10 7 10 22 24 16 11 6 11 18 23 26 27 28 24 24 27 31 31 31 32 33 33 32 30 25 22 21 21 21 21 22
9 9 7 6 8 10 9 3 8 4 3 13 19 19 22 20 6 8 11 5 17 23 23 22 23 25 24 24 30 34 34 31 31 30 29 29 28 27 24 21 20 20 20 20
6 6 10 4 4 15 12 10 8 10 9 16 24 31 38 10 10 16 7 16 22 23 22 21 23 27 29 32 36 36 33 29 30 29 27 27 25 22 21 20 18 16 16 16
12 12 6 6 5 15 17 8 12 8 24 30 31 30 24 11 13 9 15 17 20 24 25 28 31 34 36 38 40 36 33 28 27 26 24 28 26 20 16 17 14 12 13 14
6 12 10 16 11 6 28 4 11 32 36 27 23 18 14 14 16 14 15 18 21 26 27 27 31 37 35 36 40 37 35 32 27 24 22 25 24 20 13 11 9 7 8 10
7 11 6 5 8 24 20 20 26 27 27 23 11 14 16 17 15 18 23 27 31 30 30 30 34 36 39 34 33 34 34 33 31 28 26 26 22 22 17 13 10 9 8 11
7 23 13 8 12 7 25 36 37 31 24 20 19 20 17 18 22 27 32 33 33 36 37 39 44 47 50 46 44 39 39 39 39 39 37 33 31 27 26 24 22 22 22 22
20 14 11 12 30 20 26 42 43 39 31 26 23 22 23 27 28 28 33 33 38 41 42 44 46 51 52 54 56 52 48 50 47 47 47 46 43 41 39 38 37 38 35 38
Wind_Direction_500mb
306 359 309 321 317 296 268 279 269 226 245 249 219 169 63 19 303 43 44 17 43 59 47 184 206 212 216 219 223 223 220 220 221 220 221 228 232 233 235 237 240 244 250 255
13 322 313 307 309 333 281 282 308 258 210 204 152 132 87 35 344 50 53 27 30 32 60 87 169 201 210 220 225 224 224 226 226 228 232 237 242 249 253 255 252 253 256 258
235 280 323 343 343 349 317 308 334 299 89 73 121 52 122 193 31 49 49 40 32 29 36 62 136 182 195 205 213 224 224 230 235 236 236 239 244 252 258 258 255 254 259 252
247 302 337 348 351 343 330 344 343 12 99 70 354 134 248 74 53 37 33 38 26 28 28 55 72 101 149 176 205 207 214 226 235 233 236 242 249 257 264 261 258 250 246 248
291 317 337 349 284 319 262 333 344 45 51 108 14 89 334 16 34 31 21 57 41 43 30 36 30 46 82 84 108 119 166 197 207 221 239 248 250 256 269 270 261 256 255 252
271 285 247 262 286 248 285 288 251 7 71 73 341 282 33 31 29 12 42 33 48 39 40 38 27 18 39 50 42 55 49 66 99 133 131 121 204 244 285 287 285 263 274 276
327 314 311 328 338 321 14 21 349 4 47 19 339 53 31 18 39 30 49 54 45 48 51 49 33 38 47 53 43 37 36 12 15 265 277 257 242 262 270 278 282 280 270 271
351 333 353 335 69 292 321 40 104 108 46 15 2 25 14 317 331 349 75 59 27 6 8 30 63 42 50 63 76 44 28 25 2 328 325 302 294 294 283 293 275 270 279 276
357 273 308 256 311 52 319 38 284 112 350 70 7 144 46 234 3 57 63 57 54 303 309 358 356 36 59 57 54 91 81 56 44 326 283 261 263 269 259 255 258 265 269 268
322 298 275 296 344 7 44 298 12 10 68 69 51 60 73 22 35 47 55 59 71 77 72 63 58 59 59 51 55 57 72 93 102 104 103 99 256 236 245 247 236 233 236 239
331 135 293 360 15 350 346 8 32 113 64 135 117 331 220 146 113 97 74 80 80 77 75 71 69 67 64 67 67 67 58 57 63 58 42 40 52 19 303 269 257 234 215 208
48 1 260 252 278 238 242 354 33 103 280 46 89 221 128 164 125 108 97 93 87 80 77 73 68 64 61 56 53 49 46 42 45 48 50 45 37 16 6 1 329 308 272 246
22 333 354 347 353 7 44 336 328 73 53 221 124 230 113 129 98 96 97 84 79 76 70 65 59 53 51 49 49 48 43 36 30 27 27 33 39 29 13 4 347 257 240 239
86 133 178 192 222 313 324 338 359 45 86 181 199 150 147 131 110 109 98 89 80 70 63 58 53 46 41 38 36 36 35 35 31 21 2 350 345 343 349 353 340 315 295 273
109 163 191 165 13 320 286 283 329 64 51 118 206 157 196 167 153 143 121 103 80 63 51 41 35 30 26 24 23 23 21 18 17 15 6 329 292 288 293 288 279 267 257 253
31 162 90 336 349 359 292 283 267 244 162 115 67 134 173 139 139 143 129 104 76 57 43 32 26 22 20 17 16 15 13 12 10 4 359 355 340 313 294 286 282 281 275 261
82 129 77 271 340 343 330 230 194 192 215 142 171 201 171 140 151 151 130 96 69 46 32 22 17 13 10 7 7 7 6 4 2 360 354 345 337 326 307 295 289 285 278 272
130 93 65 232 9 4 253 297 109 163 226 210 117 145 131 143 148 145 125 99 58 19 3 358 357 359 360 0 1 2 358 356 353 352 348 342 334 324 315 304 288 280 278 274
95 123 69 123 187 289 300 194 181 175 209 193 189 142 141 135 134 151 146 103 17 356 348 342 339 340 341 345 351 350 348 349 349 349 347 343 337 330 319 306 295 285 277 271
82 61 113 79 135 217 250 213 208 162 320 176 174 170 158 149 122 247 176 352 342 337 334 334 339 342 335 332 336 340 342 341 344 344 346 345 339 331 326 317 303 290 280 270
91 26 148 164 219 288 234 203 153 100 220 160 165 162 160 173 168 146 213 306 316 325 327 324 325 329 329 321 320 324 328 328 335 339 343 343 339 337 332 325 316 299 283 269
161 145 175 97 88 270 174 138 184 181 140 140 144 152 165 175 187 237 294 310 320 321 318 315 313 315 317 316 316 317 320 313 324 332 337 343 341 346 355 352 339 324 308 291
208 183 177 187 209 258 194 234 196 156 149 154 155 169 196 222 247 266 289 302 311 320 324 322 320 323 325 319 312 311 313 302 305 314 314 329 327 330 340 356 8 11 335 305
238 165 183 110 232 224 210 205 178 169 173 168 185 212 223 233 246 279 295 304 307 309 311 308 310 312 315 318 311 307 307 295 288 296 298 300 303 300 300 306 309 309 303 291
174 146 173 264 271 269 223 214 198 202 198 215 230 223 225 252 271 286 293 297 300 303 307 305 305 308 313 312 309 307 303 299 290 284 283 282 277 274 276 277 277 275 272 271
189 174 170 214 200 193 205 204 205 221 218 226 222 222 242 261 273 282 293 305 307 307 307 307 308 306 307 306 306 306 303 292 286 280 277 275 271 263 262 266 269 271 270 272
Wind_Speed_850mb
2 3 5 12 16 22 25 22 32 14 12 8 17 12 13 40 23 50 56 48 42 27 11 13 28 34 37 37 38 37 34 29 28 36 44 43 42 37 38 38 34 33 30 30
8 5 8 15 16 21 12 21 20 22 12 16 18 22 26 17 17 48 61 50 48 26 24 15 15 18 28 30 33 36 37 34 31 32 33 37 34 34 35 37 40 36 36 34
1 9 14 8 15 28 10 13 14 9 18 10 22 8 10 9 27 53 70 53 54 38 33 24 15 23 28 32 32 33 35 38 35 36 35 37 38 38 36 31 31 32 30 27
7 8 8 8 13 10 11 21 15 18 3 7 9 8 2 7 25 37 48 64 55 62 36 31 30 24 20 16 22 36 33 35 38 37 36 38 39 39 35 30 27 26 30 32
8 10 9 5 11 8 11 12 7 11 8 5 12 8 8 13 20 24 29 43 34 43 47 59 42 31 39 31 20 18 15 21 21 26 29 33 32 30 32 34 33 33 36 44
10 10 5 6 13 9 20 6 5 3 5 6 12 1 5 9 10 8 19 46 65 55 45 51 54 34 43 37 31 26 30 17 15 18 8 2 4 5 11 14 18 19 22 22
12 9 12 5 9 9 16 9 6 9 9 6 20 15 8 18 12 11 16 22 35 46 55 49 39 35 33 36 43 34 24 14 14 7 3 10 10 14 21 29 29 37 45 44
9 10 13 13 3 6 9 7 5 2 4 4 14 12 10 9 14 14 5 9 14 21 24 30 26 26 32 32 42 44 31 30 22 18 19 16 16 27 28 30 33 39 30 27
6 8 10 6 6 4 14 9 4 9 3 7 5 2 3 4 7 12 20 18 5 5 6 13 12 18 27 19 15 17 18 15 14 11 9 15 21 24 27 28 24 22 21 20
3 11 5 10 5 4 5 5 6 6 6 6 4 7 4 9 10 12 21 27 32 35 36 34 32 28 20 18 18 16 14 13 12 11 5 3 2 8 13 15 15 14 13 11
4 2 11 4 9 4 11 7 7 5 4 5 6 1 3 5 6 11 19 32 34 39 42 43 44 39 34 26 23 22 19 18 16 13 9 7 6 4 4 4 5 7 9 11
3 2 6 4 6 4 2 3 1 6 4 4 4 5 5 7 13 23 26 32 39 43 46 49 48 47 44 40 38 34 28 23 21 16 13 12 11 6 2 2 3 3 3 5
4 4 6 13 10 7 9 6 1 2 4 2 7 7 4 9 17 19 28 30 35 38 42 44 45 46 45 43 42 39 33 29 22 17 15 11 8 7 8 6 3 2 4 5
3 2 7 7 5 4 6 7 6 4 4 6 5 9 6 9 12 16 20 24 28 33 35 36 38 39 38 38 37 35 32 29 24 18 13 10 9 8 7 6 6 6 6 6
4 4 1 1 4 6 6 7 6 3 2 4 4 15 10 12 13 17 18 19 25 29 32 34 35 34 34 34 35 34 33 29 26 23 15 9 8 8 9 8 7 7 6 7
2 4 2 5 5 6 8 13 8 6 5 7 4 3 8 12 19 21 21 22 24 25 26 27 28 30 32 32 33 34 35 34 31 27 25 23 18 16 14 14 14 15 14 14
3 7 5 7 8 7 10 14 13 5 2 11 9 9 11 8 19 23 22 18 17 18 21 25 27 28 28 29 29 31 32 33 32 31 28 24 21 18 17 18 19 19 19 19
9 7 5 5 8 4 9 2 2 6 2 6 5 9 7 12 12 21 18 13 11 16 22 25 26 26 26 25 26 27 31 33 33 33 31 27 23 21 20 19 19 20 21 22
3 8 5 6 6 11 9 7 10 11 7 12 10 7 10 22 24 16 11 6 11 18 23 26 27 28 24 24 27 31 31 31 32 33 33 32 30 25 22 21 21 21 21 22
9 9 7 6 8 10 9 3 8 4 3 13 19 19 22 20 6 8 11 5 17 23 23 22 23 25 24 24 30 34 34 31 31 30 29 29 28 27 24 21 20 20 20 20
6 6 10 4 4 15 12 10 8 10 9 16 24 31 38 10 10 16 7 16 22 23 22 21 23 27 29 32 36 36 33 29 30 29 27 27 25 22 21 20 18 16 16 16
12 12 6 6 5 15 17 8 12 8 24 30 31 30 24 11 13 9 15 17 20 24 25 28 31 34 36 38 40 36 33 28 27 26 24 28 26 20 16 17 14 12 13 14
6 12 10 16 11 6 28 4 11 32 36 27 23 18 14 14 16 14 15 18 21 26 27 27 31 37 35 36 40 37 35 32 27 24 22 25 24 20 13 11 9 7 8 10
7 11 6 5 8 24 20 20 26 27 27 23 11 14 16 17 15 18 23 27 31 30 30 30 34 36 39 34 33 34 34 33 31 28 26 26 22 22 17 13 10 9 8 11
7 23 13 8 12 7 25 36 37 31 24 20 19 20 17 18 22 27 32 33 33 36 37 39 44 47 50 46 44 39 39 39 39 39 37 33 31 27 26 24 22 22 22 22
20 14 11 12 30 20 26 42 43 39 31 26 23 22 23 27 28 28 33 33 38 41 42 44 46 51 52 54 56 52 48 50 47 47 47 46 43 41 39 38 37 38 35 38
Wind_Direction_850mb
306 359 309 321 317 296 268 279 269 226 245 249 219 169 63 19 303 43 44 17 43 59 47 184 206 212 216 219 223 223 220 220 221 220 221 228 232 233 235 237 240 244 250 255
13 322 313 307 309 333 281 282 308 258 210 204 152 132 87 35 344 50 53 27 30 32 60 87 169 201 210 220 225 224 224 226 226 228 232 237 242 249 253 255 252 253 256 258
235 280 323 343 343 349 317 308 334 299 89 73 121 52 122 193 31 49 49 40 32 29 36 62 136 182 195 205 213 224 224 230 235 236 236 239 244 252 258 258 255 254 259 252
247 302 337 348 351 343 330 344 343 12 99 70 354 134 248 74 53 37 33 38 26 28 28 55 72 101 149 176 205 207 214 226 235 233 236 242 249 257 264 261 258 250 246 248
291 317 337 349 284 319 262 333 344 45 51 108 14 89 334 16 34 31 21 57 41 43 30 36 30 46 82 84 108 119 166 197 207 221 239 248 250 256 269 270 261 256 255 252
271 285 247 262 286 248 285 288 251 7 71 73 341 282 33 31 29 12 42 33 48 39 40 38 27 18 39 50 42 55 49 66 99 133 131 121 204 244 285 287 285 263 274 276
327 314 311 328 338 321 14 21 349 4 47 19 339 53 31 18 39 30 49 54 45 48 51 49 33 38 47 53 43 37 36 12 15 265 277 257 242 262 270 278 282 280 270 271
351 333 353 335 69 292 321 40 104 108 46 15 2 25 14 317 331 349 75 59 27 6 8 30 63 42 50 63 76 44 28 25 2 328 325 302 294 294 283 293 275 270 279 276
357 273 308 256 311 52 319 38 284 112 350 70 7 144 46 234 3 57 63 57 54 303 309 358 356 36 59 57 54 91 81 56 44 326 283 261 263 269 259 255 258 265 269 268
322 298 275 296 344 7 44 298 12 10 68 69 51 60 73 22 35 47 55 59 71 77 72 63 58 59 59 51 55 57 72 93 102 104 103 99 256 236 245 247 236 233 236 239
331 135 293 360 15 350 346 8 32 113 64 135 117 331 220 146 113 97 74 80 80 77 75 71 69 67 64 67 67 67 58 57 63 58 42 40 52 19 303 269 257 234 215 208
48 1 260 252 278 238 242 354 33 103 280 46 89 221 128 164 125 108 97 93 87 80 77 73 68 64 61 56 53 49 46 42 45 48 50 45 37 16 6 1 329 308 272 246
22 333 354 347 353 7 44 336 328 73 53 221 124 230 113 129 98 96 97 84 79 76 70 65 59 53 51 49 49 48 43 36 30 27 27 33 39 29 13 4 347 257 240 239
86 133 178 192 222 313 324 338 359 45 86 181 199 150 147 131 110 109 98 89 80 70 63 58 53 46 41 38 36 36 35 35 31 21 2 350 345 343 349 353 340 315 295 273
109 163 191 165 13 320 286 283 329 64 51 118 206 157 196 167 153 143 121 103 80 63 51 41 35 30 26 24 23 23 21 18 17 15 6 329 292 288 293 288 279 267 257 253
31 162 90 336 349 359 292 283 267 244 162 115 67 134 173 139 139 143 129 104 76 57 43 32 26 22 20 17 16 15 13 12 10 4 359 355 340 313 294 286 282 281 275 261
82 129 77 271 340 343 330 230 194 192 215 142 171 201 171 140 151 151 130 96 69 46 32 22 17 13 10 7 7 7 6 4 2 360 354 345 337 326 307 295 289 285 278 272
130 93 65 232 9 4 253 297 109 163 226 210 117 145 131 143 148 145 125 99 58 19 3 358 357 359 360 0 1 2 358 356 353 352 348 342 334 324 315 304 288 280 278 274
95 123 69 123 187 289 300 194 181 175 209 193 189 142 141 135 134 151 146 103 17 356 348 342 339 340 341 345 351 350 348 349 349 349 347 343 337 330 319 306 295 285 277 271
82 61 113 79 135 217 250 213 208 162 320 176 174 170 158 149 122 247 176 352 342 337 334 334 339 342 335 332 336 340 342 341 344 344 346 345 339 331 326 317 303 290 280 270
91 26 148 164 219 288 234 203 153 100 220 160 165 162 160 173 168 146 213 306 316 325 327 324 325 329 329 321 320 324 328 328 335 339 343 343 339 337 332 325 316 299 283 269
161 145 175 97 88 270 174 138 184 181 140 140 144 152 165 175 187 237 294 310 320 321 318 315 313 315 317 316 316 317 320 313 324 332 337 343 341 346 355 352 339 324 308 291
208 183 177 187 209 258 194 234 196 156 149 154 155 169 196 222 247 266 289 302 311 320 324 322 320 323 325 319 312 311 313 302 305 314 314 329 327 330 340 356 8 11 335 305
238 165 183 110 232 224 210 205 178 169 173 168 185 212 223 233 246 279 295 304 307 309 311 308 310 312 315 318 311 307 307 295 288 296 298 300 303 300 300 306 309 309 303 291
174 146 173 264 271 269 223 214 198 202 198 215 230 223 225 252 271 286 293 297 300 303 307 305 305 308 313 312 309 307 303 299 290 284 283 282 277 274 276 277 277 275 272 271
189 174 170 214 200 193 205 204 205 221 218 226 222 222 242 261 273 282 293 305 307 307 307 307 308 306 307 306 306 306 303 292 286 280 277 275 271 263 262 266 269 271 270 272